STARLINK-5857 (55946 NORAD) Tracking and Keplerian Element Data

This shows tracking and keplerian element data for the satellite.

Feedback or suggestion? Click here.




ElementValue
Catalog55946
NameSTARLINK-5857
Epoch Orbit839
Epoch Day126.86774801
Epoch Year2023
RAAN40.2104
Inclination69.9986
Eccentricity0.0003996
Argument of Perigee269.2886
Mean Anonmoly90.7852
Mean Motion15.69927348
Decay Rate-2.6E-07
L11 55946U 23037AJ 23126.86774801 -.00000026 00000+0 15549-5 0 9996
L22 55946 69.9986 40.2104 0003996 269.2886 90.7852 15.69927348 8392



Live tracking and technical data element details for STARLINK-5857 (NORAD 55946). STARLINK-5857 can be tracked NOW for your location showing map with azimuth and elevation plus other details from your city location.







IsCatalogInMostPopularTable: catalog: 55946, numindb: 11
Update: records affected: 1



GetName: 55946 STARLINK-5857

Hit Count: updated at: Tue, 06 Jun 2023 04:05:07 GMT